This is the latest recevied weather packets stored in our database for station/object IZ5MMH-1. If no packets are shown the sender has not sent any weather packets the latest 10 day(s).
| Time | Temp. | Humidity | Pressure | Rain* | Wind** | Luminosity | Snow |
|---|---|---|---|---|---|---|---|
| 1787971499 | 25.56° C | 62% | 1015.5 hPa | - | - | - | - |
| 1787970899 | 25.56° C | 61% | 1015.8 hPa | - | - | - | - |
| 1787970299 | 26.11° C | 62% | 1015.7 hPa | - | - | - | - |
| 1787969700 | 26.11° C | 61% | 1015.6 hPa | - | - | - | - |
| 1787969099 | 26.11° C | 60% | 1015.7 hPa | - | - | - | - |
| 1787968499 | 26.11° C | 59% | 1015.4 hPa | - | - | - | - |
| 1787967899 | 26.11° C | 63% | 1015.3 hPa | - | - | - | - |
| 1787967299 | 26.11° C | 65% | 1015.3 hPa | - | - | - | - |
| 1787966698 | 26.11° C | 68% | 1015.6 hPa | - | - | - | - |
| 1787966100 | 26.67° C | 68% | 1015.5 hPa | - | - | - | - |
| 1787965498 | 26.67° C | 66% | 1015.6 hPa | - | - | - | - |
| 1787964899 | 27.22° C | 73% | 1016 hPa | - | - | - | - |
| 1787964299 | 27.22° C | 74% | 1015.8 hPa | - | - | - | - |
| 1787963698 | 27.22° C | 74% | 1015.9 hPa | - | - | - | - |
| 1787963102 | 27.22° C | 72% | 1015.8 hPa | - | - | - | - |
| 1787962499 | 27.22° C | 75% | 1016 hPa | - | - | - | - |
| 1787961899 | 27.22° C | 76% | 1015.9 hPa | - | - | - | - |
| 1787961298 | 27.22° C | 76% | 1016 hPa | - | - | - | - |
| 1787960698 | 27.22° C | 76% | 1016.1 hPa | - | - | - | - |
| 1787960099 | 27.22° C | 75% | 1016.2 hPa | - | - | - | - |
| 1787959502 | 27.22° C | 75% | 1016 hPa | - | - | - | - |
| 1787958898 | 27.22° C | 72% | 1016 hPa | - | - | - | - |
| 1787958299 | 27.22° C | 75% | 1015.9 hPa | - | - | - | - |
| 1787957699 | 27.22° C | 75% | 1016 hPa | - | - | - | - |
| 1787957098 | 27.22° C | 73% | 1015.7 hPa | - | - | - | - |
* Rain since midnight (hover to see other rain measurements)
** Current wind speed in m/s (hover to see current wind gust speed)